Wind_Speed
89 90 90 91 91 91 91 91 92 93 94 94 93 93 91 89 86 84 82 81 80 79 78 77 75 72 70 68 68 68 67 65 63 63 63 62 62 63 65 67 68 70 71 71 72 72 73 74 75 75 76 76 76 76 77 78 78 78 79 79 79 80 80 81 82 81 81 81 82 82 82 83 83 84 84 85 85 85 85 85 86 87 87 88 89
91 91 92 92 92 91 91 92 93 94 94 94 92 91 88 86 83 81 80 79 78 76 75 73 71 68 66 65 65 65 64 63 62 62 62 62 62 64 67 69 71 72 73 74 75 75 76 77 78 79 79 79 79 80 80 81 82 82 82 82 82 83 83 85 86 85 84 85 85 85 85 86 87 87 88 88 88 88 88 89 89 90 90 91 92
92 93 94 93 92 92 93 94 94 94 93 92 90 88 85 82 80 78 76 75 73 71 70 69 67 66 65 64 63 63 64 64 64 64 65 65 66 68 70 72 74 75 76 77 78 79 79 80 81 82 83 83 83 83 84 85 86 87 87 86 87 87 87 89 91 90 89 89 89 89 89 90 91 91 92 92 91 91 91 92 92 93 94 94 95
94 94 93 93 93 94 94 94 93 92 91 88 86 83 81 78 75 73 71 70 69 68 67 67 67 67 67 66 65 65 66 67 68 69 70 70 71 73 74 76 77 78 80 81 81 82 83 84 85 86 87 87 87 88 89 90 90 91 92 91 91 91 92 93 94 95 94 94 93 92 92 93 94 96 96 95 95 95 95 96 96 97 98 98 99
93 93 93 93 93 94 94 93 90 87 84 81 79 76 75 73 71 70 69 69 69 69 69 69 69 69 69 69 69 69 70 71 72 73 75 75 76 77 78 80 80 81 83 84 85 86 87 88 89 90 91 91 92 92 93 95 95 96 96 96 96 96 96 96 98 99 99 98 97 96 97 97 97 99 100 100 100 100 100 101 101 102 103 103 103
92 92 93 93 93 92 91 87 83 79 76 74 73 72 72 71 71 71 71 71 71 72 72 73 73 73 73 74 74 74 75 76 77 77 78 80 80 81 82 83 84 84 85 87 88 90 91 92 93 94 95 96 97 97 98 99 100 101 102 102 101 101 101 100 102 104 104 103 102 102 101 101 101 102 103 103 105 106 106 106 107 108 108 109 109
92 92 92 92 91 88 84 79 76 74 73 73 73 73 73 73 74 74 75 75 76 76 77 77 77 77 78 78 79 79 79 80 82 83 83 84 85 86 87 88 89 89 89 91 92 94 95 96 98 99 100 101 102 102 103 104 106 107 107 107 107 107 106 106 106 108 109 109 109 108 107 107 107 107 108 108 108 110 112 113 113 114 114 114 114
92 92 91 89 85 81 77 75 74 75 75 75 76 76 77 77 78 79 79 80 80 81 82 82 82 82 83 83 83 84 84 85 86 88 89 90 91 92 93 94 95 96 96 96 97 99 100 101 102 103 105 106 107 108 109 110 111 112 113 113 113 113 112 112 112 113 114 115 115 115 114 114 114 113 113 114 113 113 116 119 120 120 119 118 119
90 89 86 82 79 77 76 76 77 78 79 80 80 81 81 82 83 84 84 84 85 86 86 87 87 87 87 88 88 89 90 90 91 92 94 95 96 97 98 99 101 102 103 104 104 105 105 106 107 108 109 111 112 113 114 115 116 117 117 118 118 118 118 118 117 118 119 119 120 121 120 120 120 120 119 119 119 118 118 121 125 126 124 122 122
85 82 80 78 78 78 79 80 81 82 83 84 85 85 86 87 88 89 89 90 91 91 92 92 93 93 93 94 94 95 96 96 97 98 99 100 101 103 104 105 107 108 109 110 111 111 111 111 112 113 114 115 117 118 119 120 120 121 122 122 123 123 123 123 123 123 124 124 125 125 126 126 126 125 125 124 124 122 121 122 125 128 128 126 125
80 78 78 79 80 81 82 84 85 86 87 88 89 90 91 92 93 94 95 96 96 97 98 98 99 99 99 99 99 99 99 99 100 101 102 103 104 106 107 109 110 112 113 115 116 116 116 117 117 117 118 119 120 121 122 123 124 125 125 126 126 127 127 128 127 127 127 128 128 128 129 129 129 128 128 128 127 126 125 124 125 128 129 128 129
78 79 80 82 83 85 86 88 89 90 91 93 93 94 95 96 97 99 100 100 101 101 101 101 100 100 100 100 100 100 100 100 101 101 102 103 105 106 108 109 110 112 114 116 117 119 119 120 121 121 122 122 123 124 124 125 126 127 127 128 128 129 129 130 129 129 130 130 130 130 130 130 130 131 131 131 131 130 129 127 127 129 130 129 131
81 82 84 85 87 88 90 92 93 94 95 97 98 99 100 101 101 101 101 101 101 100 100 100 101 101 102 102 103 103 104 104 104 105 105 106 107 109 110 111 113 115 116 118 119 121 122 124 125 126 126 127 127 128 129 129 130 131 131 131 131 132 132 133 132 132 133 133 133 134 134 133 133 134 134 135 134 134 133 132 131 133 133 132 133
85 86 88 89 91 92 95 96 97 99 100 101 102 102 102 102 101 101 101 101 101 101 102 103 104 105 106 107 107 108 109 110 110 111 112 112 113 114 115 117 118 119 121 123 124 126 127 129 130 131 131 132 132 133 133 134 135 135 136 136 136 137 137 137 137 137 137 138 138 138 138 137 137 137 138 138 138 137 137 136 135 136 136 135 135
89 91 92 93 95 97 99 101 102 102 103 103 102 102 102 102 102 103 103 104 105 106 107 107 108 109 110 111 112 113 114 115 116 116 117 117 117 118 118 119 121 122 123 125 127 128 130 132 134 135 135 136 137 137 137 138 138 139 139 139 139 140 141 141 140 140 140 140 141 141 141 140 140 141 141 140 140 139 139 139 138 138 138 137 137
94 95 97 98 100 101 103 103 103 102 102 102 102 103 104 105 106 107 108 109 110 111 112 112 113 114 115 115 116 117 117 117 118 118 118 117 117 117 117 117 118 119 120 122 123 126 128 130 132 133 135 137 138 139 140 140 141 141 141 141 141 142 142 142 142 141 141 142 142 142 142 142 142 143 143 143 142 141 141 140 140 140 139 138 138
98 99 100 101 102 103 103 103 102 103 103 105 106 108 109 110 111 112 113 114 115 115 116 117 117 118 118 119 119 119 118 118 117 117 116 116 115 115 114 115 115 116 116 118 119 121 123 125 127 128 130 132 134 136 137 138 139 140 141 141 142 142 143 142 142 142 142 142 142 142 141 141 142 143 143 143 142 142 141 141 141 141 140 139 138
99 100 101 101 102 103 103 104 104 106 108 109 111 112 113 114 114 115 116 117 118 119 120 121 121 121 121 121 120 119 118 117 116 115 114 113 113 112 112 112 112 112 113 114 115 117 119 120 122 123 124 126 128 130 132 133 135 136 137 138 139 140 141 140 140 140 140 140 140 140 139 139 139 140 140 139 139 139 139 139 139 139 139 138 136
99 100 102 103 105 105 106 107 109 110 112 113 114 115 115 116 117 118 119 120 122 123 123 124 123 122 122 120 119 118 116 115 114 112 111 110 109 108 108 107 107 108 108 109 110 111 113 114 115 116 118 119 121 123 125 127 129 130 131 133 134 136 137 137 137 137 137 137 137 137 136 136 136 136 136 134 134 133 133 133 133 133 133 132 131
102 104 106 107 108 109 110 111 112 113 114 115 116 118 119 120 121 122 123 124 125 125 125 124 122 121 119 117 116 114 113 111 109 108 106 105 105 104 104 103 103 104 104 105 105 106 107 108 109 110 112 113 115 117 119 121 123 124 125 127 129 130 131 131 132 133 133 133 133 133 133 134 134 134 133 132 130 130 129 129 129 128 127 126 125
106 107 108 110 110 111 112 114 115 116 117 119 120 122 124 125 126 126 127 126 126 125 123 121 119 117 115 114 112 111 109 108 107 106 105 104 104 103 103 102 102 102 102 102 102 103 103 104 104 106 107 108 110 112 114 116 118 119 121 122 124 125 126 126 127 127 128 128 129 129 129 130 130 130 129 128 127 126 125 125 125 124 124 122 121
108 109 110 111 112 114 116 118 119 121 122 124 126 127 128 128 128 127 126 124 123 121 119 118 116 114 112 111 110 109 108 108 107 106 106 105 104 103 102 100 99 99 99 99 99 99 100 100 101 102 103 104 106 108 110 112 113 115 116 118 119 120 121 122 122 123 124 124 124 124 125 126 126 126 125 124 123 122 121 120 119 119 119 118 116
111 113 114 116 117 119 121 122 124 125 127 128 129 129 128 127 126 124 123 121 119 118 116 115 113 112 111 110 109 109 108 107 106 105 105 103 102 101 100 99 98 98 97 98 98 98 99 99 100 100 101 102 103 105 106 108 109 110 112 113 114 115 115 116 117 118 119 120 120 121 121 122 123 122 121 120 119 118 117 116 114 113 113 112 111
116 118 119 120 122 124 125 126 127 127 127 127 127 125 124 123 122 121 119 118 117 115 114 113 112 112 111 111 110 109 108 107 106 105 103 102 102 101 101 100 100 99 99 99 98 98 98 98 99 99 100 100 101 103 104 105 106 107 108 109 110 111 111 111 112 112 113 115 116 116 117 118 119 119 118 117 116 115 114 112 110 109 108 107 107
120 121 123 124 125 126 126 125 125 124 124 123 122 121 121 120 119 118 117 115 114 113 112 112 112 111 111 110 109 108 107 107 106 106 105 105 104 103 102 101 100 99 98 97 97 97 97 97 97 97 97 98 98 99 100 101 102 103 104 105 107 108 109 109 109 109 109 110 111 112 112 114 114 114 113 113 113 112 111 109 107 106 105 103 102
122 123 123 123 123 123 122 121 121 120 120 119 119 118 118 117 116 115 114 113 112 112 111 111 111 110 109 108 107 107 107 107 107 106 106 105 104 102 101 99 98 97 96 95 95 95 95 94 94 94 94 94 94 95 96 96 97 98 99 100 102 104 106 106 106 105 105 106 107 108 109 109 109 109 109 109 109 108 107 105 103 102 101 99 98
120 119 119 119 119 119 118 118 117 117 116 116 115 115 114 113 112 112 112 111 111 110 110 109 109 109 108 108 108 108 108 107 106 105 104 102 100 99 98 97 96 95 94 93 93 93 93 92 92 91 91 91 91 91 91 92 92 93 94 94 96 98 100 101 101 101 101 101 102 103 104 105 104 104 104 104 104 103 102 100 99 98 97 95 95
116 116 116 116 116 115 115 114 114 113 112 112 111 111 110 110 110 110 110 109 109 108 108 108 109 109 109 109 108 108 107 105 104 102 100 99 98 97 96 95 94 93 92 91 91 91 90 90 90 89 89 89 89 88 88 88 88 88 89 90 91 93 94 96 96 95 95 96 97 98 99 100 100 100 100 99 99 98 97 96 95 94 93 92 91
113 113 114 113 112 112 111 110 109 109 108 108 109 109 109 108 108 108 108 108 108 108 109 109 110 109 109 108 106 105 104 103 101 99 98 97 96 95 94 93 92 92 91 91 90 89 88 88 87 87 87 87 86 86 85 85 84 84 85 86 86 88 89 90 90 90 89 90 92 94 94 95 96 96 95 95 94 94 93 92 91 90 89 89 88
109 109 109 109 108 107 107 106 106 106 106 107 107 107 107 108 107 108 108 108 109 109 110 110 109 108 106 105 103 103 102 100 99 97 96 95 94 93 93 92 92 91 91 90 89 87 86 85 84 83 84 84 83 83 82 82 81 81 81 81 82 83 84 84 85 85 84 85 86 88 89 90 90 91 91 90 90 90 89 88 87 86 86 86 86
105 104 104 104 104 104 104 104 104 104 105 105 106 106 107 107 108 108 108 109 109 109 109 108 107 106 104 103 102 101 100 99 98 96 95 94 92 92 91 91 90 89 88 87 86 84 83 81 80 79 80 80 80 80 79 79 79 78 77 77 77 78 79 79 80 80 81 81 82 83 84 85 85 85 85 85 85 85 84 83 82 82 82 83 83
101 101 101 102 102 102 102 102 103 103 104 104 105 106 106 107 107 107 107 108 107 107 106 106 105 104 103 102 101 100 99 98 97 95 93 92 91 90 89 88 87 86 85 83 82 80 79 78 77 76 76 76 77 77 77 76 76 76 75 74 74 74 75 76 76 77 78 78 78 78 79 80 80 80 80 79 80 80 79 78 78 78 79 80 80
99 99 100 100 100 101 101 101 102 102 103 103 104 104 105 105 105 105 105 104 104 104 104 103 103 103 102 100 99 98 97 96 94 93 91 90 89 87 86 84 83 82 81 80 78 77 76 76 75 75 74 74 74 74 75 74 74 73 73 72 71 71 72 73 74 76 76 75 74 74 75 75 75 74 74 74 74 74 73 73 74 75 76 77 77
97 98 98 99 99 99 100 100 100 100 101 101 102 102 102 103 102 102 102 102 102 103 102 102 101 100 99 98 96 96 95 93 92 91 89 88 86 84 82 81 80 79 78 76 76 75 75 75 74 73 72 72 72 72 72 72 72 71 71 70 68 68 69 71 72 74 74 72 71 70 71 71 70 69 69 69 69 69 69 69 70 72 73 73 73
96 97 97 98 98 98 98 98 99 99 99 100 100 101 101 101 101 101 101 101 101 101 100 100 99 98 97 96 94 93 92 91 89 88 87 86 84 82 80 79 78 77 75 74 73 73 73 73 72 70 69 69 70 70 70 69 69 69 69 67 66 66 67 69 70 72 71 69 67 66 66 66 66 66 66 65 65 65 66 67 68 69 69 69 70
94 95 96 96 96 96 97 97 98 98 98 99 99 100 100 101 100 100 100 99 99 98 97 97 96 96 95 94 92 90 89 88 86 85 84 83 81 80 79 78 76 75 74 72 71 71 71 71 70 68 66 66 67 67 67 66 66 66 66 64 63 64 66 67 68 69 68 65 63 62 63 63 63 63 62 62 62 63 64 64 65 66 66 66 68
93 94 94 95 95 95 95 96 96 97 97 98 98 99 99 99 99 98 98 98 97 96 96 95 95 94 93 91 90 87 85 84 83 82 81 80 79 79 78 77 75 73 73 71 70 69 69 68 67 66 64 64 65 65 64 63 63 64 63 61 61 62 63 65 66 66 63 60 59 60 60 60 60 60 59 59 60 61 61 62 63 63 63 64 66
94 94 95 95 95 95 96 96 96 96 97 97 97 97 97 97 97 97 97 97 96 95 95 94 93 92 90 88 86 84 82 80 79 79 78 77 77 77 77 74 72 70 70 69 68 68 68 67 65 63 62 61 62 63 61 60 60 61 60 59 59 60 61 63 63 61 59 57 57 57 57 58 58 57 56 57 58 59 59 59 60 60 61 62 63
94 94 94 95 95 95 96 95 95 95 95 94 94 94 95 95 95 95 95 94 94 93 92 91 90 88 86 84 83 81 80 78 76 77 77 75 75 75 74 71 68 67 66 66 65 65 66 65 62 61 60 59 60 60 59 57 58 58 57 57 57 59 60 60 59 57 55 53 54 55 56 56 56 55 55 56 57 57 57 57 57 58 59 59 59
92 92 92 93 93 93 93 92 92 91 91 91 91 92 92 92 91 91 91 90 90 89 88 87 86 84 83 82 81 79 77 75 74 74 74 73 72 71 70 67 65 64 64 63 63 63 64 63 61 58 58 57 57 57 56 55 55 56 55 55 55 57 57 56 55 53 51 51 53 54 54 54 53 53 53 54 55 54 54 54 55 56 56 56 56
87 88 88 88 89 89 89 88 88 88 88 88 89 90 89 89 88 87 87 86 86 85 84 83 83 82 82 81 79 77 75 74 73 72 71 71 70 68 66 64 62 63 62 61 61 61 61 60 58 56 56 55 54 55 54 53 53 54 53 53 54 54 54 52 51 50 50 50 52 52 52 52 51 51 52 53 52 52 52 52 53 53 53 53 54
83 83 83 84 84 85 85 85 86 86 86 87 87 87 87 86 85 84 84 83 82 82 81 81 81 81 81 80 78 76 74 72 70 69 68 68 67 66 63 60 60 61 61 59 59 59 59 57 56 54 54 53 52 53 52 51 51 52 51 51 52 52 50 49 48 48 48 49 50 50 51 50 49 49 50 51 50 50 50 50 51 50 50 52 53
80 80 80 81 82 83 84 85 85 85 85 84 84 85 84 83 82 81 81 81 80 80 79 79 80 80 79 78 77 75 73 70 68 66 65 65 66 65 62 59 57 59 59 58 58 57 56 55 53 51 51 51 50 51 51 50 49 50 50 50 50 49 48 47 47 46 46 47 48 49 50 49 47 47 48 48 47 48 48 48 49 49 49 51 52
78 79 79 80 81 82 83 83 82 82 82 82 82 82 81 80 79 78 78 78 79 78 78 78 78 78 78 76 75 73 71 69 66 65 64 64 64 64 62 58 56 56 56 56 56 55 53 52 51 49 49 49 49 49 49 48 48 48 48 48 47 47 46 46 45 44 44 45 47 49 49 47 46 45 46 46 46 47 47 47 48 48 49 50 51
77 78 78 78 79 80 80 80 80 80 80 79 79 78 78 77 77 76 76 77 77 77 77 77 77 76 75 74 73 72 70 68 65 63 62 62 62 62 60 57 54 54 53 53 54 53 51 50 49 48 47 47 47 47 47 46 46 46 46 46 46 45 45 44 44 43 44 45 47 48 47 46 44 44 45 46 46 46 46 47 48 48 49 50 51
75 75 76 76 77 77 78 78 78 78 77 77 77 77 76 76 76 76 75 75 75 75 75 75 74 73 73 72 71 71 70 68 65 63 61 59 59 59 59 57 54 53 52 51 51 50 49 48 47 46 46 46 45 45 45 45 45 44 44 44 44 44 44 43 43 43 43 45 46 46 46 45 44 44 45 45 45 44 45 46 47 48 49 50 51
73 74 74 74 75 75 75 75 76 76 76 76 77 76 76 75 74 74 73 73 73 73 73 72 72 71 71 71 70 69 69 68 65 63 60 58 56 57 57 56 52 51 50 49 49 49 46 45 45 44 44 44 44 43 43 43 43 43 42 42 43 43 42 42 42 42 43 44 44 45 45 44 43 43 44 44 43 43 44 45 46 48 49 51 51
72 72 72 72 73 73 74 74 75 75 76 76 76 75 74 73 72 71 70 71 71 71 71 71 70 70 69 69 68 67 67 66 65 62 58 55 54 56 57 54 49 48 48 46 46 46 45 43 42 43 42 42 42 42 42 42 42 42 41 41 41 41 40 41 41 42 42 42 43 44 43 42 41 42 42 42 41 41 42 44 46 47 49 50 51
70 71 71 72 72 73 73 74 74 74 74 74 73 73 72 71 70 69 69 69 70 71 71 70 70 68 68 68 67 65 64 63 63 61 57 53 49 51 56 56 48 43 45 45 44 43 44 42 40 40 41 40 41 41 41 41 41 40 40 40 40 39 39 40 40 41 41 41 41 42 42 41 40 40 41 41 40 40 41 43 45 46 48 49 50
70 71 71 72 72 72 72 72 72 72 71 71 71 70 70 69 69 68 68 68 68 69 70 70 69 67 66 66 65 64 63 61 60 59 58 53 46 43 49 56 53 43 40 43 43 42 41 41 39 38 39 39 39 39 39 39 38 38 38 38 38 38 38 39 40 40 40 39 40 40 41 40 39 39 40 40 40 40 41 43 44 46 47 48 49
70 70 71 71 72 71 71 71 71 70 70 69 69 70 70 69 69 68 68 67 67 67 67 67 67 66 64 64 63 62 61 60 58 57 56 54 50 42 40 48 54 48 40 40 42 41 40 39 37 36 36 37 37 37 37 37 36 36 37 37 36 36 37 37 38 39 39 38 38 39 39 39 39 39 40 40 40 40 41 43 44 46 47 47 48
Wind_Direction
289 289 290 290 290 290 290 290 291 291 292 291 291 291 292 291 291 290 289 288 287 286 285 284 283 281 280 280 279 279 279 278 276 274 272 269 267 264 264 265 266 266 266 265 265 264 264 263 263 262 261 260 260 259 259 259 258 258 258 257 257 258 258 257 257 256 256 256 255 254 253 252 252 252 251 251 250 250 250 250 250 250 249 249 248
289 290 290 290 290 290 291 291 291 291 291 291 291 291 291 290 289 289 288 287 286 285 284 283 281 279 278 278 278 278 277 276 274 272 270 268 266 264 264 265 266 266 265 265 264 264 263 263 262 262 262 261 261 260 260 260 260 259 259 258 258 258 258 259 258 257 257 257 257 257 256 255 254 253 253 252 252 251 251 251 251 251 251 250 250
289 290 290 290 290 291 291 291 291 291 291 291 291 290 289 288 288 287 286 286 285 284 282 281 279 278 277 277 276 276 276 275 273 272 270 268 266 265 265 265 266 266 265 265 264 264 263 263 263 263 262 262 262 262 261 261 260 260 259 259 259 258 258 259 259 259 258 257 257 257 258 258 258 257 255 254 254 253 253 252 252 252 252 252 251
289 289 290 290 290 291 291 291 291 291 291 290 289 288 288 287 287 286 286 285 284 283 281 280 278 277 276 276 275 275 274 273 273 272 271 270 268 268 267 267 267 266 266 265 265 264 264 264 263 263 263 263 263 263 263 262 262 261 261 260 260 259 259 259 259 259 258 257 257 257 257 257 258 259 258 257 256 255 255 255 254 254 254 253 253
288 289 289 290 290 291 291 291 291 291 290 289 288 288 287 287 287 286 285 284 284 283 281 280 279 278 277 277 276 275 274 273 272 272 272 271 270 270 269 268 268 267 267 267 266 266 265 265 265 265 264 264 264 264 264 264 263 263 263 262 261 261 260 260 260 260 259 258 258 257 256 256 256 257 258 259 259 258 257 256 256 256 255 254 254
289 289 290 290 291 291 291 290 290 290 290 289 288 288 288 288 287 286 285 285 284 283 282 281 280 279 279 279 278 278 277 276 275 274 273 272 272 271 270 269 268 267 267 267 267 266 266 266 266 265 265 265 265 265 264 264 264 264 264 263 263 262 261 261 261 261 260 260 259 258 257 257 256 256 257 258 259 259 259 257 257 257 256 255 255
289 290 290 291 291 290 290 290 290 290 289 289 289 288 288 288 287 286 285 284 283 283 282 281 281 280 280 279 279 278 278 277 277 276 275 274 273 272 271 270 269 267 266 266 265 265 266 266 266 266 266 266 265 265 265 264 264 264 264 263 263 262 262 261 260 261 261 261 260 259 259 258 257 256 256 256 256 258 259 259 257 257 256 256 255
290 290 290 290 290 289 289 289 289 289 289 289 288 288 287 287 286 285 284 284 283 282 282 281 280 280 279 279 278 278 277 276 275 275 275 274 273 272 272 271 270 270 268 267 266 265 265 265 265 265 265 265 265 265 264 264 264 264 264 263 263 262 262 261 260 260 260 260 260 260 259 259 258 257 256 256 255 256 257 259 259 257 256 255 255
290 290 290 289 289 289 289 289 289 289 288 288 288 287 286 286 285 284 284 283 283 282 282 281 280 280 279 278 278 277 277 276 275 275 275 274 274 274 273 272 272 272 271 270 269 267 266 266 265 265 264 264 264 264 264 264 264 264 264 264 263 263 262 262 261 261 260 260 260 260 260 259 259 258 257 256 255 255 255 257 259 258 256 255 254
289 289 289 288 288 289 289 289 288 288 287 287 287 286 286 285 285 285 285 284 284 283 283 283 282 281 281 280 279 278 278 277 277 276 276 275 275 275 275 274 274 273 273 272 272 271 270 268 267 266 266 265 265 265 265 264 264 264 264 264 263 263 263 262 261 261 261 260 260 260 260 259 259 258 257 256 255 254 253 254 256 257 257 256 255
289 288 288 288 288 288 288 288 287 287 287 286 286 286 286 286 286 285 285 285 285 284 284 283 283 282 281 281 280 279 279 278 277 277 276 276 275 275 275 274 274 274 274 273 273 273 272 271 270 269 268 267 266 266 265 265 265 264 264 264 263 263 263 262 262 261 260 260 260 259 259 259 258 258 257 256 255 254 252 251 252 254 255 256 255
288 287 287 287 287 287 287 286 286 286 286 286 286 286 286 285 285 285 285 284 284 284 283 283 283 282 282 281 281 280 279 278 277 276 275 275 274 274 273 273 273 273 272 272 272 272 272 271 271 270 269 268 268 267 266 266 265 265 264 264 263 263 263 263 262 262 261 260 260 259 258 258 258 257 257 256 255 254 252 251 250 251 251 252 254
287 286 286 286 286 286 286 286 285 285 285 286 286 286 286 285 285 285 285 284 284 284 284 284 283 283 283 282 282 281 280 280 279 277 276 276 275 274 274 273 272 272 272 271 271 271 271 270 270 269 269 268 267 267 266 266 266 265 264 264 263 263 263 262 262 262 261 261 260 260 259 258 257 257 256 256 255 254 253 252 251 250 250 249 250
286 286 286 286 286 286 286 286 286 286 286 286 286 286 286 286 286 286 285 285 285 285 285 285 285 285 284 284 284 283 282 282 281 280 279 278 276 275 274 274 273 272 272 271 271 270 270 270 269 268 268 267 266 266 265 265 264 264 264 263 263 263 262 262 261 261 261 261 261 260 260 259 259 258 257 256 256 255 254 253 252 251 251 250 249
287 287 287 287 287 286 286 286 286 287 287 287 287 287 287 287 287 287 287 287 287 287 287 287 286 286 286 285 285 284 283 283 282 281 280 279 277 276 275 273 272 271 270 270 269 269 268 268 268 267 267 267 266 266 265 264 264 263 263 263 263 263 262 262 262 261 261 261 260 260 260 260 260 260 259 259 258 257 257 256 255 254 253 252 251
288 287 287 287 287 287 287 287 287 288 288 288 288 288 288 288 289 289 289 289 289 288 288 287 287 287 286 286 286 285 285 284 283 282 281 280 278 277 275 274 273 271 270 269 268 267 267 266 266 266 266 266 266 266 265 265 265 264 264 264 263 263 263 263 263 262 262 262 261 261 261 261 261 260 260 260 259 259 258 258 257 256 255 254 253
288 288 288 288 288 287 288 288 289 289 289 290 290 290 290 290 290 290 289 289 289 288 288 288 288 288 288 288 287 287 286 285 284 283 282 281 280 278 277 275 274 272 271 270 269 268 267 266 266 266 266 266 265 265 265 265 265 265 265 265 265 264 264 264 264 263 263 263 263 262 262 261 261 261 261 260 260 260 259 259 258 258 257 256 255
288 288 288 288 288 288 289 290 290 291 290 290 290 290 290 290 290 289 289 289 289 290 290 290 290 290 290 290 289 288 287 286 285 284 283 282 280 279 278 276 275 273 272 271 270 269 268 267 267 266 266 266 266 265 265 265 265 265 265 265 265 265 265 265 265 264 264 264 264 263 263 262 262 262 261 261 260 260 260 259 259 258 258 257 256
289 289 290 290 290 290 291 291 291 290 290 290 290 290 290 290 290 290 291 291 291 292 292 292 292 291 291 290 289 288 287 286 285 284 283 282 281 280 278 277 276 274 273 272 271 270 269 268 268 267 266 266 265 265 265 265 265 264 264 264 264 264 264 264 264 264 264 264 264 264 264 263 263 263 262 262 261 261 261 260 260 259 259 258 257
290 290 290 290 290 291 291 291 290 290 290 291 291 291 291 292 292 293 293 293 293 293 293 292 292 291 291 290 289 289 288 287 286 286 285 284 283 282 280 279 278 276 275 274 273 272 271 270 269 268 267 266 266 265 265 264 264 264 264 264 264 264 264 264 264 264 264 264 264 264 263 263 263 263 263 263 262 262 261 261 261 260 260 259 258
290 290 290 290 290 291 291 291 291 291 292 292 292 293 293 293 294 294 293 293 293 293 292 292 292 291 291 291 290 290 290 289 289 288 287 286 285 284 282 281 280 279 278 276 275 274 273 271 270 269 268 267 266 265 265 264 264 263 263 263 263 263 263 263 263 263 263 263 263 263 263 263 263 263 263 263 262 262 262 261 261 261 260 260 259
290 290 291 291 292 292 292 292 292 293 293 293 293 293 293 293 293 293 293 293 293 293 293 293 293 293 292 292 292 292 291 291 290 290 289 287 286 285 284 283 282 281 280 279 278 276 275 274 272 271 269 268 267 266 265 265 264 264 263 263 263 262 262 262 263 263 263 263 263 263 263 263 263 263 263 263 262 262 262 261 261 260 260 260 259
292 292 292 293 293 292 292 293 293 293 293 292 292 292 292 293 293 293 293 293 294 294 294 294 294 294 294 293 293 292 292 291 291 290 289 288 287 287 286 285 285 284 283 281 280 279 277 276 274 272 271 269 268 267 266 266 265 265 264 264 263 263 262 262 261 261 261 262 262 262 262 262 263 263 263 263 263 263 262 262 261 261 260 260 259
293 293 293 293 292 292 292 292 292 292 292 292 292 293 293 293 294 294 294 295 295 295 295 295 295 295 294 294 294 293 293 292 292 291 291 290 290 290 289 288 287 286 285 283 281 280 278 276 275 273 272 270 269 268 267 266 266 265 265 265 265 264 263 262 262 261 261 261 261 261 261 261 262 262 263 263 263 263 262 262 261 261 260 260 259
292 292 292 292 291 291 292 292 292 292 292 293 293 294 294 294 295 295 295 295 295 295 295 295 295 295 294 294 294 294 294 293 293 293 293 292 292 291 290 289 288 286 285 283 282 280 278 276 275 273 272 271 270 269 267 267 266 265 265 264 264 264 264 263 263 262 261 261 261 261 261 261 261 262 262 262 262 262 262 262 261 261 260 259 259
291 291 291 291 291 292 292 293 293 293 294 294 294 295 295 295 295 295 295 295 295 295 295 295 295 294 294 294 294 294 294 294 293 293 293 292 291 291 290 289 287 286 285 284 282 281 279 277 276 274 273 272 270 269 268 267 266 265 264 264 263 263 263 263 263 262 262 261 261 261 261 261 262 261 261 261 261 261 262 261 261 261 260 259 258
291 292 292 292 292 293 294 294 294 294 294 294 295 295 295 295 295 295 295 295 295 295 295 295 295 295 295 295 295 294 294 293 293 293 293 292 292 291 290 289 288 287 286 285 283 281 280 279 277 276 275 274 272 271 269 268 267 266 265 264 263 263 263 263 262 262 261 261 261 261 261 262 262 261 261 261 261 261 261 261 261 260 260 259 258
293 293 293 293 294 294 294 294 294 294 294 294 294 295 295 295 295 295 295 295 295 295 295 295 295 295 295 295 294 294 294 294 294 294 294 293 293 292 291 290 289 288 287 285 283 282 281 280 279 278 277 275 274 272 271 269 268 266 265 264 263 262 262 262 262 261 261 261 261 261 261 261 261 261 261 260 261 261 261 261 260 260 259 258 258
294 294 294 294 294 294 294 294 294 295 295 295 295 295 295 295 295 295 296 296 296 296 296 296 296 295 295 295 295 295 295 295 295 295 295 294 293 292 292 291 290 288 287 286 284 283 282 281 281 280 278 277 275 274 272 271 269 267 266 265 263 263 262 262 262 262 261 260 260 260 260 260 260 260 260 260 260 260 260 260 259 259 258 257 256
294 294 294 294 294 294 295 295 295 295 295 295 295 296 296 296 297 297 297 297 297 296 296 295 295 296 296 296 296 296 296 296 296 296 295 295 294 293 292 291 290 289 287 286 285 284 283 282 281 280 279 278 276 275 273 271 270 268 266 265 264 264 263 262 262 262 261 260 259 259 259 259 259 259 259 259 259 259 259 259 258 258 257 256 255
294 294 295 295 295 295 295 295 296 296 296 296 297 297 297 297 298 297 297 297 296 296 296 296 296 297 298 298 297 297 297 297 297 296 296 295 294 293 292 291 289 289 288 286 285 284 283 282 281 280 279 278 277 275 274 272 270 269 267 266 265 264 264 263 263 262 261 260 259 259 258 258 258 258 258 258 258 258 258 257 257 256 255 254 253
295 295 295 295 295 296 296 296 297 297 297 297 297 297 297 297 296 296 296 296 296 296 297 297 298 298 298 298 298 298 298 297 297 296 296 295 294 292 291 290 290 289 288 287 286 285 284 283 281 280 279 278 276 275 274 272 271 269 268 266 265 264 264 263 263 262 261 260 259 259 258 258 257 257 257 257 257 257 256 256 255 254 253 252 252
296 295 295 296 296 296 297 297 297 297 296 296 296 296 295 295 295 295 295 296 297 297 298 298 298 298 298 298 298 298 298 297 297 296 296 294 293 292 291 291 290 289 288 287 287 286 285 283 282 280 279 278 276 275 274 272 271 270 268 267 265 264 264 263 262 261 261 260 259 259 259 258 258 257 257 256 256 255 255 254 253 252 251 250 250
295 295 296 296 296 296 296 296 296 295 295 295 295 295 295 295 296 296 297 298 298 298 298 298 298 298 298 298 299 298 298 297 297 297 296 295 294 293 293 292 291 290 289 289 288 287 285 284 282 281 280 278 277 275 273 272 271 270 268 267 266 264 263 262 261 261 261 260 260 259 259 259 258 257 257 256 255 254 253 252 251 250 249 249 248
296 296 295 296 296 296 296 296 295 295 295 295 296 296 297 297 298 298 298 298 298 298 298 298 298 299 299 299 299 298 298 298 298 297 296 295 295 295 294 293 292 291 290 290 289 287 285 284 282 281 280 278 277 275 274 272 271 270 268 267 265 263 262 261 261 261 261 261 260 260 259 258 258 257 256 255 254 253 252 250 249 249 248 247 246
296 296 296 296 296 296 296 296 296 296 296 297 297 298 298 298 298 298 298 298 298 298 299 299 300 300 300 299 299 299 299 299 298 297 297 296 297 296 295 294 294 293 292 290 288 287 285 284 283 281 280 278 277 275 273 272 271 270 268 267 265 263 262 261 260 261 261 261 261 260 258 257 257 256 255 254 253 251 250 249 248 247 246 245 244
297 297 297 297 297 297 297 297 297 298 298 298 298 298 299 299 299 299 299 299 300 301 301 301 301 300 300 300 300 300 299 299 298 297 297 298 298 297 296 295 295 294 292 291 289 287 285 283 282 281 280 278 276 274 273 272 271 269 268 267 264 263 262 261 260 261 261 261 260 259 257 256 255 254 253 252 250 249 248 247 246 245 244 243 242
299 299 299 299 299 299 299 299 299 299 300 300 300 300 300 300 300 301 301 302 302 302 302 301 301 301 301 301 300 300 299 299 299 299 299 299 298 297 296 295 294 294 292 290 289 287 285 283 282 281 279 278 276 274 273 271 270 269 267 266 264 263 262 261 261 261 261 260 259 258 256 255 254 253 252 250 249 247 246 245 244 244 242 241 240
300 300 300 300 300 300 300 300 300 300 300 300 300 300 301 301 302 302 302 302 302 302 301 301 301 301 301 301 300 300 300 300 300 300 300 299 298 297 296 295 295 293 291 290 288 287 285 283 282 281 279 277 275 274 273 271 270 268 267 265 264 263 262 261 261 261 260 259 258 257 255 254 253 252 250 248 247 246 245 244 243 242 241 240 239
300 300 300 300 300 300 300 300 300 300 300 301 301 301 301 302 302 302 302 302 302 301 301 302 302 302 301 301 300 300 301 302 302 301 300 299 298 297 296 296 295 293 291 289 288 286 284 283 282 281 279 277 275 274 273 271 269 268 267 265 263 262 262 262 261 261 259 258 256 255 253 252 251 250 248 247 246 245 244 242 241 241 240 239 238
299 299 300 300 300 300 300 300 301 301 301 301 301 301 302 302 302 302 302 302 302 302 302 303 303 302 302 301 302 302 303 302 302 301 300 299 298 297 297 297 296 294 292 290 288 286 284 283 283 281 279 277 275 274 272 271 269 268 266 265 264 263 262 262 261 259 258 256 255 254 253 252 250 248 247 246 245 244 243 241 241 240 239 238 237
301 301 301 301 301 301 301 302 302 302 303 303 303 303 303 303 303 303 303 303 303 304 304 304 304 303 303 303 303 304 303 303 302 302 301 301 300 299 298 298 297 294 292 290 288 286 285 284 283 281 279 277 276 274 272 270 268 267 266 265 264 263 262 261 259 257 256 255 254 253 252 250 248 247 246 246 245 244 242 241 240 239 237 236 236
303 303 303 303 303 303 303 303 304 304 304 304 304 304 304 304 304 305 305 305 305 305 305 305 304 304 304 304 305 304 304 304 303 303 303 303 302 301 300 299 297 294 293 291 288 286 285 284 283 281 279 277 275 273 272 270 268 266 265 264 263 262 261 259 257 256 254 253 252 251 250 248 247 246 245 245 244 242 241 239 238 237 235 235 234
305 305 305 305 304 304 304 305 305 305 305 305 305 305 305 306 306 307 307 307 307 307 306 306 305 305 305 305 305 305 305 305 305 305 305 305 303 302 300 299 297 295 293 291 289 287 286 285 283 281 279 276 274 272 271 269 267 265 264 263 262 260 259 257 255 254 252 251 250 249 248 247 245 244 244 243 241 240 239 237 236 235 233 233 233
307 306 306 306 306 306 306 307 307 306 306 306 306 307 307 308 309 309 309 308 308 308 307 306 306 306 306 306 306 306 306 307 307 307 307 306 304 302 301 300 298 295 293 291 289 288 287 285 283 280 278 275 273 271 270 268 266 265 263 262 260 258 257 255 253 251 250 248 248 248 247 246 244 242 241 240 239 238 236 235 234 233 232 232 231
308 308 308 308 308 308 308 308 308 308 308 308 309 309 310 310 311 311 310 309 308 307 307 306 307 307 308 308 308 308 308 308 308 308 308 306 305 303 301 300 298 296 294 292 289 288 286 284 282 280 277 274 272 271 269 267 265 264 262 261 259 258 256 254 251 249 248 247 247 246 246 244 242 241 240 239 237 235 234 233 233 232 232 231 231
311 311 311 310 310 310 310 310 310 311 311 311 312 312 312 312 312 311 310 310 309 308 308 308 309 309 309 309 309 309 309 309 309 309 308 307 306 303 300 299 298 296 294 292 290 288 286 284 281 279 276 274 272 270 268 266 264 262 261 259 258 256 255 253 251 249 247 246 246 245 244 243 242 240 240 239 236 234 233 232 232 231 231 231 231
313 313 312 312 312 312 312 313 313 313 313 313 313 313 312 312 312 312 311 311 310 310 311 311 311 311 311 310 310 310 309 309 308 308 308 307 307 304 300 298 298 296 294 291 289 287 285 283 280 278 275 273 271 269 266 264 263 261 259 257 256 255 253 252 250 248 247 245 245 244 244 242 241 240 240 239 236 234 233 232 232 232 232 232 232
315 315 315 315 315 315 315 314 314 314 314 314 314 313 313 313 313 313 313 313 313 313 313 312 312 312 311 310 310 310 309 309 308 308 307 307 307 306 302 299 298 297 295 292 289 287 285 283 280 278 275 273 270 268 266 265 263 262 260 258 256 254 252 250 248 247 246 244 244 244 243 241 240 239 239 238 235 233 232 231 231 232 233 233 233
319 318 318 317 317 316 316 316 316 315 315 315 315 315 315 315 315 315 315 315 315 314 313 313 312 312 311 311 310 310 310 309 309 309 308 307 307 306 303 300 299 298 296 293 290 288 285 284 281 278 275 272 270 268 266 265 264 262 260 258 256 254 252 249 247 246 245 244 243 243 242 241 239 238 237 236 234 232 231 231 230 231 231 231 232
321 320 320 319 319 318 318 318 318 317 317 317 317 317 317 317 317 317 317 317 316 314 314 313 313 312 312 311 311 311 310 310 310 309 309 308 307 306 304 300 299 299 297 293 291 289 286 284 281 278 275 273 270 267 265 264 262 260 257 255 254 252 251 249 247 246 246 244 243 242 242 240 238 236 235 234 232 231 230 230 230 230 230 230 230
Height
10509 10505 10502 10498 10495 10490 10486 10482 10478 10474 10470 10466 10462 10458 10454 10451 10448 10445 10441 10436 10433 10429 10426 10423 10421 10419 10417 10414 10412 10409 10407 10406 10405 10403 10402 10402 10402 10402 10401 10401 10400 10400 10399 10399 10399 10399 10398 10397 10397 10396 10397 10398 10399 10398 10398 10398 10398 10399 10401 10402 10402 10402 10403 10402 10403 10406 10409 10410 10411 10413 10415 10415 10415 10417 10419 10419 10420 10423 10425 10427 10428 10430 10433 10434 10436
10498 10494 10491 10487 10483 10479 10476 10472 10468 10464 10459 10455 10451 10447 10443 10440 10437 10434 10429 10425 10422 10419 10417 10414 10412 10410 10409 10406 10404 10402 10399 10398 10396 10394 10393 10394 10393 10393 10392 10391 10390 10390 10389 10388 10388 10388 10387 10386 10385 10385 10385 10386 10387 10387 10386 10386 10386 10386 10388 10390 10390 10391 10391 10388 10388 10392 10396 10397 10397 10399 10401 10400 10401 10403 10404 10405 10407 10410 10413 10414 10415 10417 10419 10420 10422
10488 10483 10479 10476 10472 10468 10465 10461 10457 10453 10449 10445 10440 10436 10432 10429 10427 10423 10419 10416 10413 10410 10408 10405 10403 10401 10400 10399 10397 10395 10391 10389 10388 10386 10384 10385 10384 10383 10382 10381 10380 10379 10378 10377 10377 10376 10376 10375 10374 10373 10373 10373 10374 10375 10374 10373 10373 10373 10374 10376 10377 10379 10379 10376 10374 10377 10382 10383 10383 10387 10388 10386 10387 10386 10387 10391 10393 10396 10399 10400 10402 10403 10404 10406 10408
10477 10473 10469 10466 10461 10457 10453 10449 10446 10443 10438 10434 10429 10424 10421 10418 10416 10413 10410 10406 10403 10401 10399 10397 10395 10393 10391 10390 10389 10388 10385 10381 10379 10377 10375 10375 10375 10373 10372 10371 10370 10369 10367 10366 10366 10365 10364 10363 10362 10361 10361 10360 10361 10362 10361 10360 10360 10359 10360 10362 10364 10365 10366 10364 10362 10362 10365 10367 10370 10375 10374 10374 10375 10371 10370 10376 10378 10381 10383 10384 10386 10388 10389 10391 10394
10467 10463 10459 10455 10451 10446 10442 10438 10435 10432 10427 10422 10418 10414 10411 10408 10406 10403 10400 10396 10393 10391 10389 10387 10385 10383 10382 10381 10379 10378 10377 10373 10371 10369 10366 10365 10365 10363 10362 10361 10360 10359 10357 10355 10354 10353 10352 10350 10349 10349 10348 10347 10348 10348 10347 10346 10345 10345 10345 10346 10348 10350 10351 10351 10349 10346 10347 10350 10354 10359 10359 10360 10363 10359 10358 10361 10360 10362 10368 10369 10369 10371 10373 10374 10377
10456 10452 10448 10444 10440 10435 10431 10427 10424 10421 10416 10411 10407 10404 10401 10398 10396 10393 10389 10386 10383 10380 10378 10376 10374 10373 10372 10371 10369 10368 10366 10363 10361 10360 10358 10355 10353 10352 10350 10348 10348 10348 10346 10344 10342 10340 10339 10337 10336 10336 10335 10334 10333 10333 10333 10330 10329 10328 10328 10330 10331 10332 10334 10336 10335 10330 10329 10333 10336 10339 10342 10345 10348 10346 10346 10349 10347 10344 10347 10352 10353 10353 10355 10357 10360
10444 10440 10436 10432 10428 10423 10420 10417 10413 10409 10405 10401 10397 10394 10391 10389 10385 10382 10379 10376 10373 10369 10367 10365 10364 10363 10361 10360 10359 10357 10356 10353 10349 10347 10345 10343 10341 10339 10337 10334 10333 10333 10333 10331 10329 10327 10325 10324 10322 10321 10320 10318 10317 10317 10317 10314 10312 10311 10310 10312 10313 10314 10316 10320 10319 10314 10313 10316 10316 10318 10323 10326 10329 10330 10331 10334 10336 10333 10329 10329 10333 10335 10336 10340 10343
10433 10429 10425 10420 10416 10412 10409 10407 10403 10398 10394 10391 10388 10385 10381 10378 10375 10371 10368 10365 10362 10359 10356 10354 10353 10352 10350 10349 10347 10345 10344 10342 10339 10335 10332 10329 10328 10325 10323 10320 10317 10316 10316 10315 10314 10313 10311 10311 10309 10306 10305 10302 10300 10299 10299 10297 10295 10294 10292 10293 10294 10295 10297 10300 10302 10299 10297 10298 10297 10298 10303 10305 10308 10311 10313 10315 10319 10323 10319 10310 10309 10313 10318 10323 10324
10422 10417 10413 10409 10404 10401 10399 10396 10392 10387 10384 10381 10378 10374 10370 10367 10363 10360 10357 10354 10351 10348 10345 10343 10341 10340 10338 10336 10334 10331 10329 10328 10326 10323 10319 10316 10314 10311 10308 10306 10302 10299 10297 10296 10295 10295 10294 10294 10293 10291 10289 10286 10283 10281 10280 10279 10277 10276 10274 10274 10275 10276 10277 10278 10281 10281 10279 10280 10279 10278 10281 10284 10286 10289 10292 10294 10297 10305 10309 10301 10290 10288 10295 10304 10305
10411 10407 10402 10398 10394 10390 10388 10385 10381 10376 10373 10369 10366 10362 10359 10355 10352 10348 10345 10342 10339 10335 10332 10330 10327 10325 10323 10321 10319 10317 10315 10313 10311 10308 10305 10302 10299 10296 10292 10289 10286 10282 10279 10276 10274 10274 10274 10274 10273 10272 10270 10267 10265 10263 10261 10260 10258 10257 10256 10255 10255 10256 10256 10256 10259 10260 10259 10260 10260 10259 10260 10262 10263 10267 10269 10271 10275 10281 10289 10290 10280 10270 10273 10280 10283
10400 10396 10392 10388 10383 10380 10377 10373 10369 10365 10362 10358 10354 10351 10347 10343 10340 10336 10332 10328 10325 10321 10318 10315 10312 10308 10306 10304 10303 10301 10299 10298 10296 10292 10289 10286 10283 10279 10276 10272 10269 10265 10261 10257 10254 10252 10252 10251 10249 10249 10248 10246 10244 10243 10241 10240 10238 10236 10236 10235 10235 10234 10234 10234 10236 10237 10237 10238 10239 10238 10239 10240 10241 10245 10246 10245 10250 10258 10264 10270 10268 10259 10256 10261 10259
10390 10386 10382 10378 10374 10370 10366 10362 10358 10354 10350 10346 10342 10338 10335 10331 10327 10323 10318 10314 10310 10307 10303 10300 10297 10293 10291 10288 10286 10284 10282 10281 10279 10277 10274 10271 10267 10263 10260 10257 10253 10248 10244 10240 10237 10233 10230 10228 10226 10225 10225 10223 10221 10220 10219 10217 10215 10214 10213 10213 10213 10212 10212 10211 10212 10214 10213 10214 10216 10215 10217 10219 10219 10221 10222 10221 10226 10233 10237 10245 10250 10244 10240 10248 10244
10380 10376 10372 10368 10364 10359 10354 10349 10345 10341 10338 10333 10329 10325 10321 10317 10313 10308 10304 10300 10296 10293 10289 10285 10282 10278 10275 10272 10269 10266 10264 10261 10260 10258 10256 10253 10250 10246 10242 10239 10236 10231 10226 10223 10219 10215 10211 10207 10204 10202 10201 10200 10198 10197 10195 10193 10191 10190 10189 10189 10190 10189 10188 10187 10189 10191 10190 10189 10191 10191 10193 10196 10198 10198 10198 10199 10202 10207 10210 10219 10226 10222 10221 10233 10233
10369 10365 10360 10356 10352 10347 10341 10336 10332 10328 10324 10320 10315 10311 10307 10302 10297 10293 10289 10285 10281 10277 10274 10270 10265 10261 10257 10254 10251 10248 10244 10241 10238 10236 10234 10231 10229 10226 10222 10218 10215 10211 10207 10203 10198 10194 10190 10186 10182 10179 10177 10175 10174 10173 10171 10169 10167 10166 10165 10166 10165 10165 10163 10163 10165 10167 10167 10166 10166 10167 10169 10172 10174 10174 10174 10176 10179 10182 10186 10193 10199 10200 10202 10212 10216
10357 10352 10347 10343 10339 10332 10327 10322 10318 10314 10310 10306 10301 10296 10291 10286 10281 10277 10273 10268 10264 10260 10256 10252 10248 10243 10239 10235 10232 10228 10224 10220 10216 10213 10210 10207 10204 10202 10199 10195 10191 10188 10185 10181 10176 10172 10168 10163 10159 10156 10154 10151 10149 10148 10147 10146 10144 10142 10143 10143 10142 10141 10139 10138 10141 10143 10144 10145 10144 10144 10146 10148 10150 10150 10149 10152 10156 10158 10162 10167 10170 10175 10181 10189 10194
10344 10339 10334 10329 10324 10318 10312 10307 10303 10300 10296 10290 10285 10280 10275 10269 10265 10260 10256 10251 10246 10242 10238 10233 10229 10225 10220 10216 10211 10207 10203 10198 10193 10189 10185 10181 10179 10176 10173 10169 10166 10163 10161 10157 10153 10149 10145 10141 10137 10134 10131 10128 10126 10124 10122 10121 10120 10119 10120 10120 10119 10118 10115 10115 10118 10119 10120 10121 10120 10122 10124 10126 10127 10125 10124 10128 10132 10134 10138 10141 10144 10149 10156 10163 10169
10330 10325 10319 10314 10308 10303 10298 10293 10290 10285 10280 10274 10268 10263 10257 10252 10249 10244 10238 10233 10228 10223 10219 10214 10210 10205 10200 10195 10190 10185 10180 10175 10170 10165 10161 10157 10153 10150 10147 10144 10141 10138 10136 10133 10129 10125 10121 10118 10116 10113 10110 10106 10103 10101 10098 10097 10096 10095 10095 10095 10094 10093 10091 10093 10095 10095 10096 10096 10095 10098 10100 10102 10103 10100 10101 10105 10108 10110 10114 10117 10119 10123 10128 10135 10144
10317 10311 10305 10300 10294 10288 10284 10280 10275 10270 10264 10258 10252 10246 10241 10236 10232 10227 10221 10215 10209 10204 10199 10193 10189 10184 10179 10173 10168 10163 10158 10153 10148 10143 10139 10135 10130 10127 10123 10120 10117 10114 10112 10109 10106 10103 10099 10096 10094 10092 10090 10085 10082 10079 10076 10075 10073 10072 10072 10071 10070 10068 10066 10070 10071 10070 10072 10072 10071 10074 10075 10077 10079 10076 10077 10082 10084 10086 10090 10092 10095 10099 10102 10108 10118
10303 10297 10291 10284 10278 10274 10270 10265 10259 10253 10247 10242 10236 10230 10224 10219 10214 10208 10202 10196 10190 10184 10178 10172 10167 10162 10157 10152 10147 10142 10137 10132 10127 10122 10117 10113 10109 10105 10101 10097 10094 10090 10088 10086 10083 10080 10078 10075 10072 10071 10069 10065 10061 10058 10054 10053 10052 10050 10050 10048 10046 10045 10044 10047 10048 10046 10048 10048 10048 10050 10051 10052 10053 10052 10054 10058 10060 10063 10066 10069 10071 10075 10078 10083 10092
10288 10282 10276 10269 10264 10259 10255 10249 10242 10237 10231 10225 10219 10212 10206 10200 10194 10188 10182 10176 10169 10163 10158 10153 10148 10143 10137 10132 10126 10120 10115 10109 10104 10099 10095 10091 10086 10082 10079 10075 10072 10068 10066 10064 10061 10059 10056 10054 10052 10049 10047 10044 10040 10037 10033 10031 10031 10029 10028 10026 10024 10022 10022 10025 10026 10024 10025 10025 10025 10028 10028 10028 10028 10028 10031 10035 10037 10040 10044 10047 10048 10051 10054 10059 10066
10274 10268 10261 10255 10250 10246 10239 10231 10225 10220 10214 10207 10200 10193 10186 10179 10174 10168 10162 10157 10151 10144 10139 10133 10128 10122 10116 10110 10104 10099 10092 10087 10082 10077 10073 10069 10064 10060 10057 10054 10051 10047 10044 10042 10039 10037 10034 10032 10030 10027 10024 10021 10019 10016 10012 10010 10009 10009 10007 10005 10004 10002 10002 10004 10004 10003 10004 10003 10004 10006 10007 10006 10005 10006 10010 10012 10015 10018 10022 10025 10028 10030 10033 10036 10041
10259 10253 10246 10240 10236 10229 10221 10214 10208 10201 10194 10187 10180 10173 10166 10160 10155 10149 10143 10138 10132 10126 10119 10113 10107 10101 10095 10089 10084 10078 10073 10067 10062 10057 10052 10048 10044 10040 10036 10033 10031 10027 10024 10021 10018 10015 10012 10009 10007 10005 10002 9999 9996 9994 9992 9989 9988 9988 9986 9985 9984 9983 9983 9984 9984 9984 9984 9982 9983 9986 9987 9985 9984 9985 9989 9991 9994 9998 10000 10004 10008 10010 10013 10016 10018
10242 10236 10229 10224 10218 10210 10202 10196 10189 10183 10176 10169 10162 10155 10149 10142 10136 10130 10124 10118 10112 10106 10099 10093 10087 10081 10075 10070 10064 10059 10054 10048 10043 10038 10033 10029 10024 10020 10016 10013 10010 10006 10003 9999 9996 9993 9990 9988 9985 9983 9980 9977 9975 9973 9971 9969 9968 9967 9966 9965 9963 9963 9964 9964 9964 9964 9964 9963 9964 9967 9967 9965 9964 9965 9969 9972 9974 9978 9979 9983 9988 9989 9993 9997 9998
10223 10217 10211 10205 10198 10190 10184 10178 10172 10165 10158 10151 10144 10137 10130 10124 10117 10111 10104 10098 10092 10085 10079 10073 10067 10061 10055 10050 10045 10039 10034 10028 10023 10018 10013 10009 10004 10000 9996 9992 9989 9986 9982 9978 9975 9971 9969 9966 9964 9961 9959 9957 9954 9953 9951 9949 9948 9947 9946 9945 9943 9942 9943 9944 9945 9945 9946 9945 9946 9948 9949 9947 9945 9947 9951 9953 9955 9957 9959 9963 9968 9971 9974 9978 9979
10205 10199 10193 10187 10179 10172 10167 10161 10155 10147 10140 10133 10125 10118 10112 10105 10098 10092 10086 10080 10073 10067 10062 10056 10049 10044 10038 10032 10027 10021 10015 10009 10004 9999 9995 9990 9986 9982 9978 9974 9970 9966 9962 9958 9955 9951 9948 9945 9943 9941 9939 9937 9935 9934 9932 9930 9929 9928 9927 9927 9924 9922 9922 9923 9924 9926 9927 9928 9928 9930 9930 9928 9928 9931 9933 9935 9936 9938 9941 9945 9949 9952 9955 9958 9961
10190 10184 10178 10170 10162 10155 10150 10143 10136 10129 10122 10115 10107 10100 10094 10087 10081 10075 10069 10063 10057 10051 10045 10039 10033 10028 10022 10017 10011 10005 9999 9993 9988 9984 9979 9974 9969 9965 9960 9955 9950 9947 9943 9939 9935 9931 9927 9925 9923 9921 9919 9918 9916 9914 9913 9912 9910 9909 9908 9908 9907 9904 9903 9903 9905 9907 9909 9911 9911 9911 9911 9910 9911 9914 9916 9917 9919 9921 9924 9928 9931 9934 9937 9940 9943
10175 10169 10161 10152 10145 10139 10133 10126 10119 10112 10105 10098 10092 10085 10079 10073 10066 10059 10053 10048 10042 10036 10030 10024 10018 10012 10006 10001 9995 9989 9983 9978 9973 9968 9962 9957 9952 9946 9941 9936 9931 9927 9924 9920 9915 9911 9908 9905 9903 9902 9900 9898 9897 9895 9894 9893 9892 9891 9890 9890 9889 9887 9886 9886 9888 9890 9892 9893 9894 9893 9893 9892 9893 9896 9898 9900 9902 9904 9907 9911 9913 9916 9919 9922 9926
10158 10151 10142 10134 10128 10123 10116 10110 10103 10097 10090 10084 10077 10071 10064 10059 10052 10046 10039 10033 10027 10021 10014 10008 10001 9995 9990 9984 9978 9972 9967 9961 9956 9951 9945 9940 9934 9928 9923 9918 9913 9909 9905 9901 9897 9893 9890 9887 9885 9883 9881 9879 9877 9876 9875 9874 9874 9873 9872 9872 9872 9871 9871 9870 9871 9873 9875 9876 9876 9876 9876 9876 9877 9879 9882 9884 9886 9888 9891 9894 9897 9899 9903 9906 9909
10141 10133 10124 10118 10112 10106 10100 10094 10088 10081 10075 10068 10061 10055 10049 10043 10037 10030 10024 10017 10010 10003 9996 9990 9984 9979 9974 9968 9962 9956 9950 9944 9939 9934 9928 9923 9917 9911 9906 9900 9895 9891 9887 9883 9879 9876 9874 9872 9869 9866 9863 9861 9859 9858 9856 9856 9856 9855 9855 9855 9856 9855 9855 9855 9855 9857 9859 9860 9859 9859 9860 9861 9862 9863 9866 9868 9870 9873 9875 9878 9881 9884 9887 9890 9892
10126 10118 10109 10103 10096 10090 10084 10078 10072 10066 10059 10052 10045 10038 10032 10025 10019 10012 10005 9998 9992 9986 9979 9973 9968 9963 9957 9952 9946 9939 9933 9927 9922 9917 9912 9906 9900 9895 9889 9884 9879 9874 9869 9866 9863 9860 9857 9856 9854 9851 9847 9844 9842 9840 9839 9838 9838 9838 9839 9839 9840 9840 9840 9840 9841 9841 9843 9843 9843 9844 9845 9846 9847 9849 9851 9853 9855 9857 9860 9863 9866 9869 9871 9873 9875
10110 10102 10095 10088 10081 10075 10069 10063 10057 10051 10044 10037 10029 10022 10015 10008 10002 9996 9989 9983 9976 9970 9964 9958 9951 9946 9940 9935 9929 9923 9916 9910 9905 9901 9895 9890 9885 9879 9874 9869 9864 9859 9854 9850 9847 9845 9842 9840 9838 9836 9832 9828 9825 9823 9822 9821 9821 9822 9823 9824 9825 9825 9825 9826 9826 9826 9826 9827 9828 9829 9830 9831 9833 9835 9837 9839 9841 9843 9846 9849 9852 9854 9856 9857 9859
10095 10088 10081 10074 10068 10061 10056 10049 10042 10036 10029 10022 10015 10008 10001 9995 9989 9982 9976 9969 9962 9956 9949 9943 9936 9930 9925 9919 9913 9908 9902 9895 9889 9885 9880 9874 9869 9864 9858 9854 9849 9844 9839 9835 9832 9830 9827 9824 9822 9820 9817 9814 9811 9808 9807 9806 9806 9807 9808 9809 9811 9811 9811 9812 9812 9811 9811 9812 9813 9815 9816 9818 9820 9822 9824 9826 9828 9830 9833 9836 9838 9839 9840 9842 9844
10081 10075 10067 10061 10054 10048 10042 10036 10029 10023 10016 10009 10003 9997 9990 9984 9977 9971 9963 9956 9949 9942 9935 9929 9922 9916 9911 9905 9900 9894 9887 9881 9875 9870 9864 9858 9853 9849 9844 9839 9835 9829 9824 9821 9818 9815 9812 9809 9806 9805 9803 9800 9797 9794 9792 9792 9792 9793 9793 9795 9798 9798 9798 9797 9796 9795 9796 9798 9800 9802 9803 9805 9807 9810 9812 9814 9815 9817 9820 9822 9824 9824 9826 9828 9831
10068 10062 10055 10048 10042 10036 10031 10024 10018 10012 10005 9998 9991 9985 9978 9970 9963 9957 9949 9942 9936 9928 9922 9916 9909 9902 9896 9891 9886 9879 9872 9867 9861 9854 9848 9842 9837 9833 9829 9823 9819 9814 9810 9807 9804 9800 9796 9793 9791 9791 9789 9786 9783 9781 9779 9779 9779 9779 9779 9782 9785 9785 9784 9783 9782 9780 9782 9785 9788 9790 9791 9792 9795 9797 9799 9801 9803 9805 9807 9809 9810 9810 9812 9816 9819
10055 10049 10042 10036 10030 10025 10018 10012 10005 9999 9992 9985 9977 9969 9962 9955 9948 9942 9935 9929 9922 9916 9909 9902 9895 9888 9881 9876 9871 9864 9857 9851 9845 9839 9832 9826 9822 9817 9812 9808 9803 9799 9796 9794 9790 9786 9782 9778 9777 9777 9776 9773 9769 9767 9767 9766 9766 9766 9767 9770 9772 9771 9770 9770 9768 9768 9769 9773 9777 9779 9780 9781 9783 9785 9787 9789 9791 9793 9795 9796 9797 9798 9801 9805 9808
10044 10038 10031 10024 10018 10012 10006 9999 9991 9985 9978 9971 9963 9955 9948 9941 9934 9928 9922 9915 9909 9902 9895 9887 9879 9872 9866 9860 9854 9850 9844 9837 9831 9825 9818 9812 9808 9803 9796 9792 9789 9785 9782 9780 9776 9772 9769 9765 9763 9763 9763 9760 9756 9754 9754 9754 9753 9753 9755 9757 9758 9757 9757 9757 9756 9756 9759 9763 9767 9768 9768 9770 9771 9773 9775 9778 9780 9781 9782 9784 9785 9787 9791 9794 9796
10032 10025 10018 10012 10005 9999 9992 9985 9978 9971 9964 9957 9949 9941 9934 9927 9920 9914 9907 9899 9892 9885 9878 9871 9863 9856 9850 9845 9839 9835 9831 9825 9818 9812 9805 9800 9795 9789 9783 9779 9777 9773 9768 9765 9762 9759 9755 9753 9752 9750 9750 9748 9744 9742 9743 9743 9742 9742 9743 9745 9745 9744 9744 9744 9744 9746 9749 9754 9755 9756 9757 9759 9760 9762 9765 9767 9768 9769 9771 9773 9775 9777 9781 9783 9785
10015 10009 10002 9995 9989 9982 9975 9969 9962 9955 9948 9941 9934 9926 9919 9912 9904 9897 9890 9882 9875 9868 9862 9855 9848 9842 9836 9831 9826 9821 9817 9812 9806 9799 9793 9788 9783 9776 9770 9767 9766 9762 9756 9752 9749 9745 9741 9740 9740 9739 9738 9736 9732 9730 9731 9732 9731 9731 9732 9733 9732 9732 9732 9732 9733 9736 9740 9743 9744 9745 9746 9748 9749 9752 9755 9756 9756 9758 9761 9763 9765 9768 9771 9773 9776
9998 9993 9986 9979 9972 9966 9959 9953 9947 9941 9935 9928 9920 9913 9905 9898 9891 9884 9876 9870 9863 9855 9849 9842 9836 9830 9823 9818 9813 9808 9803 9799 9794 9787 9780 9776 9772 9765 9759 9756 9754 9750 9745 9740 9737 9733 9728 9727 9728 9727 9726 9724 9722 9719 9720 9721 9720 9720 9721 9722 9721 9720 9720 9721 9724 9728 9731 9733 9734 9734 9735 9737 9739 9743 9744 9745 9746 9749 9751 9754 9756 9759 9761 9764 9769
9986 9980 9973 9967 9960 9954 9947 9941 9936 9929 9923 9916 9909 9901 9894 9887 9881 9873 9866 9859 9851 9844 9837 9830 9823 9817 9811 9804 9799 9795 9791 9786 9782 9776 9769 9764 9760 9754 9748 9745 9742 9738 9733 9729 9726 9722 9717 9715 9716 9716 9714 9713 9712 9709 9710 9711 9710 9709 9710 9711 9710 9710 9710 9713 9716 9719 9721 9723 9723 9723 9725 9727 9730 9733 9733 9734 9737 9739 9742 9745 9747 9749 9753 9758 9761
9978 9971 9964 9957 9950 9943 9936 9931 9925 9919 9912 9905 9897 9889 9882 9876 9869 9862 9855 9847 9840 9833 9825 9818 9811 9804 9798 9791 9786 9782 9778 9774 9769 9765 9759 9752 9747 9742 9738 9735 9731 9725 9720 9718 9714 9710 9707 9705 9705 9705 9704 9702 9702 9700 9700 9701 9700 9700 9701 9701 9700 9701 9702 9705 9708 9710 9711 9712 9712 9713 9716 9718 9721 9723 9724 9725 9728 9731 9733 9736 9738 9741 9746 9750 9752
9967 9960 9954 9946 9938 9931 9923 9917 9912 9905 9899 9892 9884 9876 9869 9863 9857 9850 9842 9834 9827 9820 9813 9806 9799 9791 9784 9778 9773 9769 9765 9762 9757 9753 9748 9741 9735 9730 9727 9725 9721 9713 9709 9707 9703 9699 9697 9696 9696 9695 9693 9692 9692 9690 9690 9691 9691 9691 9691 9691 9691 9692 9695 9697 9698 9700 9702 9703 9703 9704 9706 9709 9712 9714 9715 9717 9720 9723 9725 9727 9730 9734 9738 9740 9742
9955 9948 9941 9934 9926 9918 9910 9904 9898 9892 9885 9879 9872 9863 9856 9850 9844 9837 9829 9821 9814 9807 9801 9793 9786 9779 9772 9766 9761 9756 9752 9749 9745 9741 9736 9730 9723 9717 9715 9714 9710 9703 9698 9696 9692 9689 9688 9687 9686 9686 9684 9682 9682 9681 9680 9681 9682 9682 9682 9682 9683 9684 9686 9688 9690 9691 9693 9694 9694 9695 9697 9700 9703 9705 9707 9709 9712 9714 9717 9720 9723 9726 9729 9731 9734
9943 9936 9929 9922 9914 9907 9899 9892 9887 9880 9873 9866 9859 9852 9844 9838 9833 9826 9818 9809 9801 9794 9788 9781 9773 9767 9761 9754 9749 9744 9739 9736 9732 9729 9724 9719 9713 9707 9703 9702 9699 9694 9689 9685 9682 9680 9679 9677 9676 9676 9674 9673 9672 9672 9671 9672 9672 9672 9673 9673 9674 9676 9677 9679 9681 9683 9685 9686 9686 9686 9688 9691 9695 9697 9699 9701 9704 9706 9709 9712 9715 9717 9720 9722 9725
9931 9924 9918 9911 9903 9895 9888 9881 9874 9868 9861 9854 9847 9840 9833 9827 9820 9814 9806 9798 9790 9783 9776 9769 9762 9756 9750 9743 9737 9731 9726 9723 9720 9717 9714 9709 9703 9696 9691 9690 9688 9684 9680 9676 9673 9671 9670 9668 9667 9666 9665 9663 9663 9663 9663 9663 9663 9664 9665 9665 9666 9667 9669 9670 9673 9675 9676 9677 9677 9678 9680 9684 9687 9689 9690 9693 9696 9699 9702 9705 9707 9709 9712 9713 9716
9921 9914 9907 9899 9891 9884 9876 9869 9862 9855 9848 9841 9834 9827 9821 9815 9808 9802 9795 9787 9780 9773 9765 9758 9752 9746 9739 9732 9727 9720 9715 9710 9707 9705 9703 9700 9694 9687 9681 9678 9677 9674 9671 9668 9664 9662 9661 9660 9658 9657 9655 9654 9654 9654 9654 9655 9655 9655 9657 9657 9658 9659 9661 9662 9665 9667 9667 9668 9669 9671 9673 9676 9679 9681 9682 9685 9689 9692 9695 9697 9699 9701 9703 9705 9708
9909 9902 9895 9888 9881 9873 9866 9858 9851 9843 9836 9829 9822 9815 9809 9803 9798 9791 9784 9777 9769 9762 9755 9748 9742 9736 9728 9721 9716 9711 9705 9699 9696 9694 9692 9690 9685 9678 9672 9669 9668 9665 9662 9659 9656 9653 9653 9651 9649 9648 9647 9646 9646 9646 9646 9646 9646 9647 9648 9649 9650 9652 9654 9655 9657 9658 9659 9660 9662 9663 9665 9668 9671 9674 9675 9678 9682 9686 9688 9690 9692 9694 9695 9697 9700
9899 9892 9885 9878 9870 9863 9855 9848 9840 9833 9825 9818 9811 9804 9798 9793 9787 9781 9774 9766 9758 9750 9744 9738 9731 9726 9719 9712 9707 9702 9697 9691 9686 9683 9682 9681 9676 9667 9661 9660 9660 9657 9653 9651 9649 9645 9644 9643 9641 9640 9639 9639 9638 9638 9638 9638 9638 9639 9640 9641 9643 9644 9646 9648 9649 9650 9652 9654 9655 9656 9659 9662 9665 9667 9669 9672 9676 9679 9682 9684 9686 9687 9689 9691 9694
9890 9882 9875 9868 9860 9853 9845 9838 9831 9823 9816 9809 9802 9795 9789 9783 9777 9770 9763 9756 9748 9740 9732 9726 9721 9716 9710 9703 9698 9693 9689 9684 9678 9673 9671 9673 9671 9662 9649 9645 9650 9651 9645 9641 9640 9638 9635 9635 9634 9632 9631 9631 9631 9630 9630 9631 9632 9633 9634 9635 9636 9638 9639 9641 9642 9643 9645 9647 9649 9650 9653 9656 9659 9661 9663 9666 9670 9673 9675 9677 9679 9681 9683 9686 9689
9880 9873 9865 9857 9850 9843 9836 9829 9822 9815 9808 9800 9793 9785 9778 9772 9766 9759 9753 9747 9740 9731 9723 9716 9711 9706 9701 9695 9689 9684 9680 9676 9671 9665 9660 9660 9663 9660 9647 9634 9634 9641 9640 9634 9631 9630 9628 9627 9627 9626 9624 9624 9624 9623 9623 9624 9626 9627 9628 9629 9630 9631 9633 9634 9635 9636 9638 9641 9643 9644 9646 9649 9652 9655 9657 9659 9663 9666 9668 9670 9672 9674 9677 9680 9684
9871 9864 9856 9848 9840 9833 9826 9819 9812 9805 9798 9791 9783 9775 9768 9761 9755 9749 9743 9738 9732 9724 9717 9709 9702 9697 9692 9687 9681 9676 9671 9667 9663 9659 9653 9648 9648 9652 9648 9634 9623 9626 9632 9629 9624 9622 9621 9619 9619 9619 9617 9617 9617 9617 9617 9618 9618 9619 9620 9622 9623 9625 9627 9628 9629 9630 9633 9635 9637 9638 9640 9643 9646 9648 9650 9653 9656 9659 9661 9663 9666 9668 9672 9675 9679